User: anonymous   Login
Location: Unspecified
(0.0000°N, 0.0000°E)
Time: 18:52:54
(UTC+00:00)
Language:

DELFI C3 - Orbit

View from above orbital plane
View from above orbital plane
View from above satellite
View from above satellite

Ground track
Ground track

The orbit data is extracted from the following two-line orbital elements,

1 32789U 08021G   18015.94523170  .00000939  00000-0  69099-4 0  9994
2 32789 097.5338 074.4813 0014225 097.6357 262.6486 15.05678988528774
Epoch (UTC): 15 January 2018 22:41:08
Eccentricity: 0.0014225
inclination: 97.5338°
perigee height: 539 km
apogee height: 559 km
right ascension of ascending node: 74.4813°
argument of perigee: 97.6357°
revolutions per day: 15.05678988
mean anomaly at epoch: 262.6486°
orbit number at epoch: 52877

The dashed part of the orbit path shows where the satellite is in the earth's shadow,  

DLR